Time,TemperatureF,DewpointF,PressureIn,WindDirection,WindDirectionDegrees,WindSpeedMPH,WindSpeedGustMPH,Humidity,HourlyPrecipIn,Conditions,Clouds,dailyrainin,SoftwareType,DateUTC
2013-11-24 00:02:00,23.4,14.1,30.53,NNW,335,3.0,16.0,67,0.00,,---,0.00,VWS V14.01,2013-11-24 06:02:00,
2013-11-24 00:07:00,23.4,13.7,30.53,NNW,329,3.0,14.0,66,0.00,,---,0.00,VWS V14.01,2013-11-24 06:07:00,
2013-11-24 00:12:00,23.4,13.7,30.53,NNW,348,2.0,15.0,66,0.00,,---,0.00,VWS V14.01,2013-11-24 06:12:00,
2013-11-24 00:17:00,23.4,13.7,30.53,NNW,338,6.0,15.0,66,0.00,,---,0.00,VWS V14.01,2013-11-24 06:17:00,
2013-11-24 00:22:00,23.3,13.6,30.53,North,355,7.0,15.0,66,0.00,,---,0.00,VWS V14.01,2013-11-24 06:22:00,
2013-11-24 00:27:00,23.1,13.4,30.53,NNW,329,6.0,15.0,66,0.00,,---,0.00,VWS V14.01,2013-11-24 06:27:00,
2013-11-24 00:32:00,23.0,13.4,30.53,NNE,30,5.0,15.0,66,0.00,,---,0.00,VWS V14.01,2013-11-24 06:32:00,
2013-11-24 00:37:00,22.9,13.3,30.53,ENE,72,7.0,8.0,66,0.00,,---,0.00,VWS V14.01,2013-11-24 06:37:00,
2013-11-24 00:42:00,22.7,13.1,30.53,NNE,22,4.0,13.0,66,0.00,,---,0.00,VWS V14.01,2013-11-24 06:42:00,
2013-11-24 00:47:00,22.6,13.3,30.53,North,360,3.0,13.0,67,0.00,,---,0.00,VWS V14.01,2013-11-24 06:47:00,
2013-11-24 00:52:00,22.5,13.2,30.53,NW,325,7.0,13.0,67,0.00,,---,0.00,VWS V14.01,2013-11-24 06:52:00,
2013-11-24 00:57:00,22.4,13.1,30.53,NNE,19,0.0,13.0,67,0.00,,---,0.00,VWS V14.01,2013-11-24 06:57:00,
2013-11-24 01:02:00,22.4,13.1,30.53,NNE,13,3.0,13.0,67,0.00,,---,0.00,VWS V14.01,2013-11-24 07:02:00,
2013-11-24 01:07:00,22.3,13.0,30.53,NNE,30,0.0,5.0,67,0.00,,---,0.00,VWS V14.01,2013-11-24 07:07:00,
2013-11-24 01:12:00,22.2,12.9,30.53,NNE,28,0.0,6.0,67,0.00,,---,0.00,VWS V14.01,2013-11-24 07:12:00,
2013-11-24 01:17:00,22.2,12.9,30.53,NNE,23,1.0,7.0,67,0.00,,---,0.00,VWS V14.01,2013-11-24 07:17:00,
2013-11-24 01:22:00,22.1,12.8,30.53,North,11,7.0,9.0,67,0.00,,---,0.00,VWS V14.01,2013-11-24 07:22:00,
2013-11-24 01:27:00,22.1,12.8,30.53,North,355,7.0,9.0,67,0.00,,---,0.00,VWS V14.01,2013-11-24 07:27:00,
2013-11-24 01:32:00,22.0,12.7,30.53,North,349,3.0,10.0,67,0.00,,---,0.00,VWS V14.01,2013-11-24 07:32:00,
2013-11-24 01:37:00,22.0,13.1,30.53,NNE,19,1.0,5.0,68,0.00,,---,0.00,VWS V14.01,2013-11-24 07:37:00,
2013-11-24 01:42:00,21.9,13.0,30.53,NNE,24,5.0,11.0,68,0.00,,---,0.00,VWS V14.01,2013-11-24 07:42:00,
2013-11-24 01:47:00,21.9,13.0,30.53,NNE,17,0.0,11.0,68,0.00,,---,0.00,VWS V14.01,2013-11-24 07:47:00,
2013-11-24 01:52:00,21.8,12.9,30.53,NE,39,2.0,11.0,68,0.00,,---,0.00,VWS V14.01,2013-11-24 07:52:00,
2013-11-24 01:57:00,21.8,12.9,30.53,North,355,3.0,11.0,68,0.00,,---,0.00,VWS V14.01,2013-11-24 07:57:00,
2013-11-24 02:02:00,21.8,13.2,30.53,NNE,29,1.0,11.0,69,0.00,,---,0.00,VWS V14.01,2013-11-24 08:02:00,
2013-11-24 02:07:00,21.7,13.1,30.53,NNE,26,5.0,9.0,69,0.00,,---,0.00,VWS V14.01,2013-11-24 08:07:00,
2013-11-24 02:12:00,21.6,13.0,30.53,North,355,0.0,11.0,69,0.00,,---,0.00,VWS V14.01,2013-11-24 08:12:00,
2013-11-24 02:17:00,21.6,13.0,30.54,North,5,4.0,11.0,69,0.00,,---,0.00,VWS V14.01,2013-11-24 08:17:00,
2013-11-24 02:22:00,21.5,12.9,30.54,NNW,346,3.0,11.0,69,0.00,,---,0.00,VWS V14.01,2013-11-24 08:22:00,
2013-11-24 02:27:00,21.4,12.8,30.54,NNE,17,7.0,11.0,69,0.00,,---,0.00,VWS V14.01,2013-11-24 08:27:00,
2013-11-24 02:32:00,21.4,13.1,30.54,North,5,0.0,11.0,70,0.00,,---,0.00,VWS V14.01,2013-11-24 08:32:00,
2013-11-24 02:37:00,21.3,13.1,30.54,NNE,22,0.0,5.0,70,0.00,,---,0.00,VWS V14.01,2013-11-24 08:37:00,
2013-11-24 02:42:00,21.3,13.1,30.54,North,5,3.0,10.0,70,0.00,,---,0.00,VWS V14.01,2013-11-24 08:42:00,
2013-11-24 02:47:00,21.2,13.0,30.54,NNE,13,3.0,10.0,70,0.00,,---,0.00,VWS V14.01,2013-11-24 08:47:00,
2013-11-24 02:52:00,21.2,12.6,30.54,NNE,28,2.0,13.0,69,0.00,,---,0.00,VWS V14.01,2013-11-24 08:52:00,
2013-11-24 02:57:00,21.1,12.5,30.54,North,5,2.0,13.0,69,0.00,,---,0.00,VWS V14.01,2013-11-24 08:57:00,
2013-11-24 03:02:00,21.1,12.5,30.55,NNW,331,1.0,13.0,69,0.00,,---,0.00,VWS V14.01,2013-11-24 09:02:00,
2013-11-24 03:07:00,21.1,12.5,30.55,North,9,0.0,5.0,69,0.00,,---,0.00,VWS V14.01,2013-11-24 09:07:00,
2013-11-24 03:12:00,21.0,12.4,30.55,North,5,3.0,6.0,69,0.00,,---,0.00,VWS V14.01,2013-11-24 09:12:00,
2013-11-24 03:17:00,20.9,12.7,30.55,North,360,1.0,6.0,70,0.00,,---,0.00,VWS V14.01,2013-11-24 09:17:00,
2013-11-24 03:22:00,20.8,12.6,30.55,North,350,0.0,6.0,70,0.00,,---,0.00,VWS V14.01,2013-11-24 09:22:00,
2013-11-24 03:27:00,20.7,12.5,30.55,NNW,337,1.0,6.0,70,0.00,,---,0.00,VWS V14.01,2013-11-24 09:27:00,
2013-11-24 03:32:00,20.7,12.5,30.55,NNE,15,0.0,9.0,70,0.00,,---,0.00,VWS V14.01,2013-11-24 09:32:00,
2013-11-24 03:37:00,20.6,12.7,30.55,NNW,343,0.0,4.0,71,0.00,,---,0.00,VWS V14.01,2013-11-24 09:37:00,
2013-11-24 03:42:00,20.5,12.9,30.55,North,355,4.0,6.0,72,0.00,,---,0.00,VWS V14.01,2013-11-24 09:42:00,
2013-11-24 03:47:00,20.4,12.8,30.55,North,360,2.0,6.0,72,0.00,,---,0.00,VWS V14.01,2013-11-24 09:47:00,
2013-11-24 03:52:00,20.3,13.0,30.55,North,5,1.0,7.0,73,0.00,,---,0.00,VWS V14.01,2013-11-24 09:52:00,
2013-11-24 03:57:00,20.3,13.0,30.55,North,11,10.0,11.0,73,0.00,,---,0.00,VWS V14.01,2013-11-24 09:57:00,
2013-11-24 04:02:00,20.3,13.0,30.55,North,355,4.0,11.0,73,0.00,,---,0.00,VWS V14.01,2013-11-24 10:02:00,
2013-11-24 04:07:00,20.3,13.0,30.55,North,355,0.0,7.0,73,0.00,,---,0.00,VWS V14.01,2013-11-24 10:07:00,
2013-11-24 04:12:00,20.2,12.9,30.55,NNE,15,4.0,7.0,73,0.00,,---,0.00,VWS V14.01,2013-11-24 10:12:00,
2013-11-24 04:17:00,20.1,12.9,30.56,NNE,27,3.0,8.0,73,0.00,,---,0.00,VWS V14.01,2013-11-24 10:17:00,
2013-11-24 04:22:00,20.0,12.8,30.56,NNE,26,1.0,9.0,73,0.00,,---,0.00,VWS V14.01,2013-11-24 10:22:00,
2013-11-24 04:27:00,20.0,12.8,30.56,NNW,343,3.0,10.0,73,0.00,,---,0.00,VWS V14.01,2013-11-24 10:27:00,
2013-11-24 04:32:00,19.9,12.3,30.57,North,10,0.0,10.0,72,0.00,,---,0.00,VWS V14.01,2013-11-24 10:32:00,
2013-11-24 04:37:00,19.9,12.3,30.57,North,5,3.0,9.0,72,0.00,,---,0.00,VWS V14.01,2013-11-24 10:37:00,
2013-11-24 04:42:00,19.9,12.3,30.57,NE,40,3.0,9.0,72,0.00,,---,0.00,VWS V14.01,2013-11-24 10:42:00,
2013-11-24 04:47:00,19.8,12.2,30.57,NNW,347,7.0,9.0,72,0.00,,---,0.00,VWS V14.01,2013-11-24 10:47:00,
2013-11-24 04:52:00,19.8,12.2,30.57,North,355,4.0,10.0,72,0.00,,---,0.00,VWS V14.01,2013-11-24 10:52:00,
2013-11-24 04:57:00,19.7,12.1,30.57,NNE,22,4.0,10.0,72,0.00,,---,0.00,VWS V14.01,2013-11-24 10:57:00,
2013-11-24 05:02:00,19.7,12.1,30.57,NNE,19,1.0,10.0,72,0.00,,---,0.00,VWS V14.01,2013-11-24 11:02:00,
2013-11-24 05:07:00,19.7,12.1,30.57,North,10,0.0,10.0,72,0.00,,---,0.00,VWS V14.01,2013-11-24 11:07:00,
2013-11-24 05:12:00,19.7,12.1,30.57,North,351,0.0,10.0,72,0.00,,---,0.00,VWS V14.01,2013-11-24 11:12:00,
2013-11-24 05:17:00,19.6,12.4,30.57,North,350,3.0,10.0,73,0.00,,---,0.00,VWS V14.01,2013-11-24 11:17:00,
2013-11-24 05:22:00,19.5,12.3,30.57,NE,40,0.0,10.0,73,0.00,,---,0.00,VWS V14.01,2013-11-24 11:22:00,
2013-11-24 05:27:00,19.5,12.3,30.57,North,11,0.0,10.0,73,0.00,,---,0.00,VWS V14.01,2013-11-24 11:27:00,
2013-11-24 05:32:00,19.4,12.2,30.58,NNW,342,1.0,10.0,73,0.00,,---,0.00,VWS V14.01,2013-11-24 11:32:00,
2013-11-24 05:37:00,19.3,12.1,30.58,North,355,3.0,7.0,73,0.00,,---,0.00,VWS V14.01,2013-11-24 11:37:00,
2013-11-24 05:42:00,19.3,12.1,30.58,North,360,2.0,7.0,73,0.00,,---,0.00,VWS V14.01,2013-11-24 11:42:00,
2013-11-24 05:47:00,19.1,12.2,30.58,NNE,28,0.0,7.0,74,0.00,,---,0.00,VWS V14.01,2013-11-24 11:47:00,
2013-11-24 05:52:00,19.1,12.2,30.58,NNE,33,5.0,8.0,74,0.00,,---,0.00,VWS V14.01,2013-11-24 11:52:00,
2013-11-24 05:57:00,19.1,12.2,30.58,North,5,1.0,10.0,74,0.00,,---,0.00,VWS V14.01,2013-11-24 11:57:00,
2013-11-24 06:02:00,19.1,12.2,30.59,NNE,19,2.0,10.0,74,0.00,,---,0.00,VWS V14.01,2013-11-24 12:02:00,
2013-11-24 06:07:00,19.1,12.2,30.59,North,350,1.0,7.0,74,0.00,,---,0.00,VWS V14.01,2013-11-24 12:07:00,
2013-11-24 06:12:00,19.0,12.1,30.59,NNE,32,4.0,7.0,74,0.00,,---,0.00,VWS V14.01,2013-11-24 12:12:00,
2013-11-24 06:17:00,19.0,12.1,30.59,NE,34,2.0,7.0,74,0.00,,---,0.00,VWS V14.01,2013-11-24 12:17:00,
2013-11-24 06:22:00,18.9,12.0,30.59,North,9,0.0,11.0,74,0.00,,---,0.00,VWS V14.01,2013-11-24 12:22:00,
2013-11-24 06:27:00,18.9,12.0,30.59,North,355,0.0,11.0,74,0.00,,---,0.00,VWS V14.01,2013-11-24 12:27:00,
2013-11-24 06:31:00,18.8,12.2,30.60,NE,37,1.0,11.0,75,0.00,,---,0.00,VWS V14.01,2013-11-24 12:31:00,
2013-11-24 06:36:00,18.8,12.2,30.60,NNE,22,1.0,6.0,75,0.00,,---,0.00,VWS V14.01,2013-11-24 12:36:00,
2013-11-24 06:41:00,18.8,12.2,30.60,North,10,1.0,7.0,75,0.00,,---,0.00,VWS V14.01,2013-11-24 12:41:00,
2013-11-24 06:46:00,18.7,12.1,30.60,North,350,0.0,7.0,75,0.00,,---,0.00,VWS V14.01,2013-11-24 12:46:00,
2013-11-24 06:51:00,18.6,12.0,30.60,NNE,27,4.0,7.0,75,0.00,,---,0.00,VWS V14.01,2013-11-24 12:51:00,
2013-11-24 06:56:00,18.6,12.0,30.60,NNW,348,6.0,7.0,75,0.00,,---,0.00,VWS V14.01,2013-11-24 12:56:00,
2013-11-24 07:02:00,18.6,12.0,30.60,North,360,0.0,7.0,75,0.00,,---,0.00,VWS V14.01,2013-11-24 13:02:00,
2013-11-24 07:07:00,18.7,12.1,30.60,North,11,0.0,6.0,75,0.00,,---,0.00,VWS V14.01,2013-11-24 13:07:00,
2013-11-24 07:12:00,18.9,12.3,30.60,NE,39,1.0,6.0,75,0.00,,---,0.00,VWS V14.01,2013-11-24 13:12:00,
2013-11-24 07:17:00,19.0,12.4,30.60,NE,36,3.0,6.0,75,0.00,,---,0.00,VWS V14.01,2013-11-24 13:17:00,
2013-11-24 07:22:00,19.1,12.5,30.60,NNE,18,2.0,6.0,75,0.00,,---,0.00,VWS V14.01,2013-11-24 13:22:00,
2013-11-24 07:27:00,19.2,12.6,30.60,ENE,67,6.0,6.0,75,0.00,,---,0.00,VWS V14.01,2013-11-24 13:27:00,
2013-11-24 07:32:00,19.3,12.4,30.60,North,5,4.0,8.0,74,0.00,,---,0.00,VWS V14.01,2013-11-24 13:32:00,
2013-11-24 07:37:00,19.5,12.6,30.60,NNW,345,4.0,6.0,74,0.00,,---,0.00,VWS V14.01,2013-11-24 13:37:00,
2013-11-24 07:42:00,19.7,12.8,30.60,NE,42,0.0,6.0,74,0.00,,---,0.00,VWS V14.01,2013-11-24 13:42:00,
2013-11-24 07:47:00,19.7,12.8,30.60,NNE,28,0.0,10.0,74,0.00,,---,0.00,VWS V14.01,2013-11-24 13:47:00,
2013-11-24 07:52:00,19.9,12.7,30.60,NE,43,0.0,10.0,73,0.00,,---,0.00,VWS V14.01,2013-11-24 13:52:00,
2013-11-24 07:57:00,20.2,13.2,30.60,NE,34,0.0,10.0,74,0.00,,---,0.00,VWS V14.01,2013-11-24 13:57:00,
2013-11-24 08:02:00,20.4,13.1,30.61,NNE,22,5.0,10.0,73,0.00,,---,0.00,VWS V14.01,2013-11-24 14:02:00,
2013-11-24 08:07:00,20.8,13.5,30.61,NE,42,1.0,5.0,73,0.00,,---,0.00,VWS V14.01,2013-11-24 14:07:00,
2013-11-24 08:12:00,20.9,13.3,30.61,North,351,2.0,6.0,72,0.00,,---,0.00,VWS V14.01,2013-11-24 14:12:00,
2013-11-24 08:17:00,21.1,13.5,30.61,ENE,59,2.0,6.0,72,0.00,,---,0.00,VWS V14.01,2013-11-24 14:17:00,
2013-11-24 08:21:00,21.5,13.9,30.61,NNE,17,3.0,6.0,72,0.00,,---,0.00,VWS V14.01,2013-11-24 14:21:00,
2013-11-24 08:27:00,21.6,13.7,30.61,ENE,67,0.0,6.0,71,0.00,,---,0.00,VWS V14.01,2013-11-24 14:27:00,
2013-11-24 08:32:00,22.0,13.7,30.61,ENE,57,4.0,7.0,70,0.00,,---,0.00,VWS V14.01,2013-11-24 14:32:00,
2013-11-24 08:37:00,22.3,13.7,30.61,North,9,1.0,6.0,69,0.00,,---,0.00,VWS V14.01,2013-11-24 14:37:00,
2013-11-24 08:42:00,22.4,13.8,30.61,North,360,2.0,7.0,69,0.00,,---,0.00,VWS V14.01,2013-11-24 14:42:00,
2013-11-24 08:47:00,22.6,13.6,30.61,North,9,2.0,9.0,68,0.00,,---,0.00,VWS V14.01,2013-11-24 14:47:00,
2013-11-24 08:51:00,22.8,13.5,30.61,East,82,10.0,11.0,67,0.00,,---,0.00,VWS V14.01,2013-11-24 14:51:00,
2013-11-24 08:56:00,23.0,13.7,30.61,NE,53,5.0,12.0,67,0.00,,---,0.00,VWS V14.01,2013-11-24 14:56:00,
2013-11-24 09:01:00,23.1,13.4,30.61,ENE,69,3.0,13.0,66,0.00,,---,0.00,VWS V14.01,2013-11-24 15:01:00,
2013-11-24 09:06:00,23.3,13.6,30.61,ENE,78,10.0,13.0,66,0.00,,---,0.00,VWS V14.01,2013-11-24 15:06:00,
2013-11-24 09:12:00,23.5,13.8,30.61,ENE,63,4.0,15.0,66,0.00,,---,0.00,VWS V14.01,2013-11-24 15:12:00,
2013-11-24 09:16:00,23.8,14.1,30.60,East,83,4.0,15.0,66,0.00,,---,0.00,VWS V14.01,2013-11-24 15:16:00,
2013-11-24 09:22:00,24.0,14.3,30.60,North,350,2.0,15.0,66,0.00,,---,0.00,VWS V14.01,2013-11-24 15:22:00,
2013-11-24 09:26:00,24.0,14.0,30.60,ENE,66,3.0,15.0,65,0.00,,---,0.00,VWS V14.01,2013-11-24 15:26:00,
2013-11-24 09:31:00,24.4,14.7,30.61,ENE,63,4.0,15.0,66,0.00,,---,0.00,VWS V14.01,2013-11-24 15:31:00,
2013-11-24 09:36:00,24.8,14.7,30.61,ENE,60,1.0,12.0,65,0.00,,---,0.00,VWS V14.01,2013-11-24 15:36:00,
2013-11-24 09:41:00,25.0,14.9,30.61,NNE,25,6.0,12.0,65,0.00,,---,0.00,VWS V14.01,2013-11-24 15:41:00,
2013-11-24 09:46:00,24.7,14.3,30.60,ENE,66,4.0,13.0,64,0.00,,---,0.00,VWS V14.01,2013-11-24 15:46:00,
2013-11-24 09:51:00,24.8,14.7,30.60,NE,38,3.0,13.0,65,0.00,,---,0.00,VWS V14.01,2013-11-24 15:51:00,
2013-11-24 09:56:00,25.0,14.9,30.60,North,360,4.0,13.0,65,0.00,,---,0.00,VWS V14.01,2013-11-24 15:56:00,
2013-11-24 10:02:00,25.3,15.2,30.59,ESE,109,3.0,13.0,65,0.00,,---,0.00,VWS V14.01,2013-11-24 16:02:00,
2013-11-24 10:07:00,25.8,15.3,30.59,ENE,57,4.0,10.0,64,0.00,,---,0.00,VWS V14.01,2013-11-24 16:07:00,
2013-11-24 10:12:00,26.3,15.1,30.59,ENE,71,2.0,10.0,62,0.00,,---,0.00,VWS V14.01,2013-11-24 16:12:00,
2013-11-24 10:17:00,26.9,15.3,30.59,East,94,9.0,10.0,61,0.00,,---,0.00,VWS V14.01,2013-11-24 16:17:00,
2013-11-24 10:22:00,26.8,14.8,30.59,ENE,59,5.0,10.0,60,0.00,,---,0.00,VWS V14.01,2013-11-24 16:22:00,
2013-11-24 10:27:00,26.6,15.0,30.59,NNE,16,5.0,10.0,61,0.00,,---,0.00,VWS V14.01,2013-11-24 16:27:00,
2013-11-24 10:32:00,26.9,15.3,30.58,ENE,57,6.0,11.0,61,0.00,,---,0.00,VWS V14.01,2013-11-24 16:32:00,
2013-11-24 10:37:00,26.8,15.2,30.58,East,82,7.0,13.0,61,0.00,,---,0.00,VWS V14.01,2013-11-24 16:37:00,
2013-11-24 10:42:00,27.0,15.4,30.58,NE,36,1.0,13.0,61,0.00,,---,0.00,VWS V14.01,2013-11-24 16:42:00,
2013-11-24 10:47:00,27.1,15.4,30.57,NNE,26,3.0,13.0,61,0.00,,---,0.00,VWS V14.01,2013-11-24 16:47:00,
2013-11-24 10:51:00,27.7,15.3,30.57,North,351,3.0,13.0,59,0.00,,---,0.00,VWS V14.01,2013-11-24 16:51:00,
2013-11-24 10:56:00,27.9,15.4,30.57,ENE,57,3.0,13.0,59,0.00,,---,0.00,VWS V14.01,2013-11-24 16:56:00,
2013-11-24 11:01:00,27.8,15.7,30.55,ENE,74,1.0,13.0,60,0.00,,---,0.00,VWS V14.01,2013-11-24 17:01:00,
2013-11-24 11:06:00,28.2,16.1,30.55,ENE,67,3.0,8.0,60,0.00,,---,0.00,VWS V14.01,2013-11-24 17:06:00,
2013-11-24 11:11:00,28.3,15.4,30.55,ENE,67,2.0,8.0,58,0.00,,---,0.00,VWS V14.01,2013-11-24 17:11:00,
2013-11-24 11:17:00,28.7,15.8,30.55,ENE,75,5.0,11.0,58,0.00,,---,0.00,VWS V14.01,2013-11-24 17:17:00,
2013-11-24 11:21:00,28.7,15.4,30.55,NE,52,2.0,12.0,57,0.00,,---,0.00,VWS V14.01,2013-11-24 17:21:00,
2013-11-24 11:26:00,28.4,15.5,30.55,East,86,0.0,12.0,58,0.00,,---,0.00,VWS V14.01,2013-11-24 17:26:00,
2013-11-24 11:31:00,28.7,15.4,30.54,NNE,32,3.0,12.0,57,0.00,,---,0.00,VWS V14.01,2013-11-24 17:31:00,
2013-11-24 11:36:00,29.2,16.7,30.54,North,10,2.0,5.0,59,0.00,,---,0.00,VWS V14.01,2013-11-24 17:36:00,
2013-11-24 11:41:00,29.7,15.9,30.54,ENE,65,1.0,9.0,56,0.00,,---,0.00,VWS V14.01,2013-11-24 17:41:00,
2013-11-24 11:46:00,30.3,15.7,30.53,NE,38,5.0,9.0,54,0.00,,---,0.00,VWS V14.01,2013-11-24 17:46:00,
2013-11-24 11:51:00,29.8,15.6,30.53,ENE,74,2.0,9.0,55,0.00,,---,0.00,VWS V14.01,2013-11-24 17:51:00,
2013-11-24 11:56:00,29.6,16.2,30.53,NNE,27,3.0,12.0,57,0.00,,---,0.00,VWS V14.01,2013-11-24 17:56:00,
2013-11-24 12:01:00,30.1,15.9,30.52,ENE,63,0.0,12.0,55,0.00,,---,0.00,VWS V14.01,2013-11-24 18:01:00,
2013-11-24 12:06:00,29.8,15.6,30.52,ENE,75,6.0,12.0,55,0.00,,---,0.00,VWS V14.01,2013-11-24 18:06:00,
2013-11-24 12:11:00,29.2,15.9,30.52,NNE,32,5.0,12.0,57,0.00,,---,0.00,VWS V14.01,2013-11-24 18:11:00,
2013-11-24 12:16:00,29.9,17.3,30.51,ENE,69,2.0,12.0,59,0.00,,---,0.00,VWS V14.01,2013-11-24 18:16:00,
2013-11-24 12:21:00,29.8,16.0,30.51,ENE,61,9.0,12.0,56,0.00,,---,0.00,VWS V14.01,2013-11-24 18:21:00,
2013-11-24 12:26:00,30.0,16.6,30.51,NNE,14,5.0,12.0,57,0.00,,---,0.00,VWS V14.01,2013-11-24 18:26:00,
2013-11-24 12:31:00,30.2,16.4,30.50,NE,48,0.0,12.0,56,0.00,,---,0.00,VWS V14.01,2013-11-24 18:31:00,
2013-11-24 12:36:00,30.9,17.1,30.50,East,80,11.0,13.0,56,0.00,,---,0.00,VWS V14.01,2013-11-24 18:36:00,
2013-11-24 12:41:00,30.3,16.5,30.50,North,355,4.0,13.0,56,0.00,,---,0.00,VWS V14.01,2013-11-24 18:41:00,
2013-11-24 12:46:00,30.7,16.9,30.50,ENE,66,1.0,13.0,56,0.00,,---,0.00,VWS V14.01,2013-11-24 18:46:00,
2013-11-24 12:51:00,30.8,16.1,30.50,NE,54,4.0,13.0,54,0.00,,---,0.00,VWS V14.01,2013-11-24 18:51:00,
2013-11-24 12:56:00,30.8,16.1,30.50,NNW,340,6.0,13.0,54,0.00,,---,0.00,VWS V14.01,2013-11-24 18:56:00,
2013-11-24 13:01:00,31.0,16.3,30.49,North,349,3.0,13.0,54,0.00,,---,0.00,VWS V14.01,2013-11-24 19:01:00,
2013-11-24 13:06:00,31.5,16.4,30.49,NNE,22,2.0,10.0,53,0.00,,---,0.00,VWS V14.01,2013-11-24 19:06:00,
2013-11-24 13:11:00,31.6,16.5,30.49,NE,56,1.0,10.0,53,0.00,,---,0.00,VWS V14.01,2013-11-24 19:11:00,
2013-11-24 13:16:00,31.1,16.0,30.49,NE,36,5.0,12.0,53,0.00,,---,0.00,VWS V14.01,2013-11-24 19:16:00,
2013-11-24 13:21:00,31.0,15.4,30.49,NNE,23,1.0,12.0,52,0.00,,---,0.00,VWS V14.01,2013-11-24 19:21:00,
2013-11-24 13:26:00,31.7,16.1,30.49,ENE,58,1.0,12.0,52,0.00,,---,0.00,VWS V14.01,2013-11-24 19:26:00,
2013-11-24 13:31:00,32.0,16.4,30.48,East,88,0.0,12.0,52,0.00,,---,0.00,VWS V14.01,2013-11-24 19:31:00,
2013-11-24 13:36:00,32.0,15.9,30.48,ENE,64,2.0,6.0,51,0.00,,---,0.00,VWS V14.01,2013-11-24 19:36:00,
2013-11-24 13:41:00,31.8,15.3,30.48,ENE,63,2.0,9.0,50,0.00,,---,0.00,VWS V14.01,2013-11-24 19:41:00,
2013-11-24 13:46:00,31.4,15.4,30.47,ENE,59,0.0,9.0,51,0.00,,---,0.00,VWS V14.01,2013-11-24 19:46:00,
2013-11-24 13:51:00,31.7,15.7,30.47,NNE,22,1.0,9.0,51,0.00,,---,0.00,VWS V14.01,2013-11-24 19:51:00,
2013-11-24 13:56:00,32.1,16.0,30.47,ENE,75,0.0,9.0,51,0.00,,---,0.00,VWS V14.01,2013-11-24 19:56:00,
2013-11-24 14:01:00,32.3,15.8,30.47,NE,53,3.0,9.0,50,0.00,,---,0.00,VWS V14.01,2013-11-24 20:01:00,
2013-11-24 14:06:00,32.4,15.4,30.47,ENE,59,0.0,7.0,49,0.00,,---,0.00,VWS V14.01,2013-11-24 20:06:00,
2013-11-24 14:11:00,32.1,15.6,30.47,East,80,7.0,13.0,50,0.00,,---,0.00,VWS V14.01,2013-11-24 20:11:00,
2013-11-24 14:16:00,31.5,15.0,30.46,ENE,71,5.0,13.0,50,0.00,,---,0.00,VWS V14.01,2013-11-24 20:16:00,
2013-11-24 14:21:00,31.4,15.4,30.46,North,360,1.0,13.0,51,0.00,,---,0.00,VWS V14.01,2013-11-24 20:21:00,
2013-11-24 14:26:00,31.4,14.9,30.46,ENE,74,6.0,13.0,50,0.00,,---,0.00,VWS V14.01,2013-11-24 20:26:00,
2013-11-24 14:31:00,31.6,15.6,30.46,ESE,105,1.0,13.0,51,0.00,,---,0.00,VWS V14.01,2013-11-24 20:31:00,
2013-11-24 14:36:00,31.5,15.5,30.46,NE,53,5.0,9.0,51,0.00,,---,0.00,VWS V14.01,2013-11-24 20:36:00,
2013-11-24 14:41:00,31.6,15.6,30.46,ENE,65,8.0,9.0,51,0.00,,---,0.00,VWS V14.01,2013-11-24 20:41:00,
2013-11-24 14:46:00,31.6,15.1,30.46,NE,55,0.0,10.0,50,0.00,,---,0.00,VWS V14.01,2013-11-24 20:46:00,
2013-11-24 14:51:00,31.7,14.7,30.46,NNE,27,4.0,10.0,49,0.00,,---,0.00,VWS V14.01,2013-11-24 20:51:00,
2013-11-24 14:56:00,31.5,15.0,30.46,NE,36,6.0,10.0,50,0.00,,---,0.00,VWS V14.01,2013-11-24 20:56:00,
2013-11-24 15:01:00,31.4,14.9,30.46,NE,34,2.0,10.0,50,0.00,,---,0.00,VWS V14.01,2013-11-24 21:01:00,
2013-11-24 15:06:00,31.4,14.9,30.46,North,9,0.0,6.0,50,0.00,,---,0.00,VWS V14.01,2013-11-24 21:06:00,
2013-11-24 15:11:00,31.3,15.3,30.46,NE,48,2.0,6.0,51,0.00,,---,0.00,VWS V14.01,2013-11-24 21:11:00,
2013-11-24 15:16:00,31.3,15.3,30.46,ENE,67,0.0,10.0,51,0.00,,---,0.00,VWS V14.01,2013-11-24 21:16:00,
2013-11-24 15:21:00,31.3,15.3,30.46,North,5,5.0,10.0,51,0.00,,---,0.00,VWS V14.01,2013-11-24 21:21:00,
2013-11-24 15:26:00,31.3,15.3,30.46,ENE,60,2.0,10.0,51,0.00,,---,0.00,VWS V14.01,2013-11-24 21:26:00,
2013-11-24 15:31:00,31.1,15.1,30.46,NNE,27,1.0,10.0,51,0.00,,---,0.00,VWS V14.01,2013-11-24 21:31:00,
2013-11-24 15:36:00,31.1,15.1,30.46,NE,41,4.0,4.0,51,0.00,,---,0.00,VWS V14.01,2013-11-24 21:36:00,
2013-11-24 15:41:00,31.1,15.1,30.46,East,82,3.0,5.0,51,0.00,,---,0.00,VWS V14.01,2013-11-24 21:41:00,
2013-11-24 15:46:00,31.0,15.0,30.46,ENE,66,4.0,9.0,51,0.00,,---,0.00,VWS V14.01,2013-11-24 21:46:00,
2013-11-24 15:51:00,30.9,14.9,30.46,North,360,6.0,9.0,51,0.00,,---,0.00,VWS V14.01,2013-11-24 21:51:00,
2013-11-24 15:56:00,30.8,14.8,30.46,ENE,69,2.0,9.0,51,0.00,,---,0.00,VWS V14.01,2013-11-24 21:56:00,
2013-11-24 16:01:00,30.8,15.3,30.46,East,81,2.0,9.0,52,0.00,,---,0.00,VWS V14.01,2013-11-24 22:01:00,
2013-11-24 16:06:00,30.7,14.7,30.46,NE,49,1.0,9.0,51,0.00,,---,0.00,VWS V14.01,2013-11-24 22:06:00,
2013-11-24 16:11:00,30.6,15.1,30.46,NE,40,3.0,9.0,52,0.00,,---,0.00,VWS V14.01,2013-11-24 22:11:00,
2013-11-24 16:16:00,30.5,15.0,30.45,NE,55,2.0,9.0,52,0.00,,---,0.00,VWS V14.01,2013-11-24 22:16:00,
2013-11-24 16:21:00,30.5,15.0,30.45,ENE,70,0.0,9.0,52,0.00,,---,0.00,VWS V14.01,2013-11-24 22:21:00,
2013-11-24 16:26:00,30.5,14.5,30.45,NE,40,1.0,9.0,51,0.00,,---,0.00,VWS V14.01,2013-11-24 22:26:00,
2013-11-24 16:31:00,30.4,14.9,30.45,ENE,60,0.0,9.0,52,0.00,,---,0.00,VWS V14.01,2013-11-24 22:31:00,
2013-11-24 16:36:00,30.3,14.8,30.45,ENE,63,0.0,4.0,52,0.00,,---,0.00,VWS V14.01,2013-11-24 22:36:00,
2013-11-24 16:41:00,30.2,14.7,30.45,ENE,67,0.0,4.0,52,0.00,,---,0.00,VWS V14.01,2013-11-24 22:41:00,
2013-11-24 16:46:00,30.1,15.1,30.45,ENE,69,0.0,4.0,53,0.00,,---,0.00,VWS V14.01,2013-11-24 22:46:00,
2013-11-24 16:51:00,30.0,15.0,30.45,ENE,73,2.0,4.0,53,0.00,,---,0.00,VWS V14.01,2013-11-24 22:51:00,
2013-11-24 16:56:00,30.0,14.5,30.45,ENE,73,0.0,4.0,52,0.00,,---,0.00,VWS V14.01,2013-11-24 22:56:00,
2013-11-24 17:01:00,29.9,14.4,30.45,ENE,67,0.0,4.0,52,0.00,,---,0.00,VWS V14.01,2013-11-24 23:01:00,
2013-11-24 17:06:00,29.9,14.9,30.45,ENE,67,0.0,2.0,53,0.00,,---,0.00,VWS V14.01,2013-11-24 23:06:00,
2013-11-24 17:11:00,29.8,14.8,30.45,ENE,68,1.0,2.0,53,0.00,,---,0.00,VWS V14.01,2013-11-24 23:11:00,
2013-11-24 17:16:00,29.8,14.3,30.45,ENE,59,0.0,2.0,52,0.00,,---,0.00,VWS V14.01,2013-11-24 23:16:00,
2013-11-24 17:21:00,29.8,14.8,30.45,ENE,59,0.0,3.0,53,0.00,,---,0.00,VWS V14.01,2013-11-24 23:21:00,
2013-11-24 17:26:00,29.7,15.1,30.45,ENE,63,0.0,3.0,54,0.00,,---,0.00,VWS V14.01,2013-11-24 23:26:00,
2013-11-24 17:31:00,29.6,15.0,30.45,ENE,63,0.0,3.0,54,0.00,,---,0.00,VWS V14.01,2013-11-24 23:31:00,
2013-11-24 17:36:00,29.6,15.0,30.45,ENE,63,0.0,1.0,54,0.00,,---,0.00,VWS V14.01,2013-11-24 23:36:00,
2013-11-24 17:41:00,29.5,14.9,30.45,ENE,64,3.0,3.0,54,0.00,,---,0.00,VWS V14.01,2013-11-24 23:41:00,
2013-11-24 17:46:00,29.5,14.9,30.45,ENE,61,1.0,3.0,54,0.00,,---,0.00,VWS V14.01,2013-11-24 23:46:00,
2013-11-24 17:51:00,29.4,15.2,30.45,ENE,61,0.0,3.0,55,0.00,,---,0.00,VWS V14.01,2013-11-24 23:51:00,
2013-11-24 17:56:00,29.4,15.2,30.45,ENE,61,0.0,3.0,55,0.00,,---,0.00,VWS V14.01,2013-11-24 23:56:00,
2013-11-24 18:01:00,29.4,15.2,30.45,ENE,60,0.0,3.0,55,0.00,,---,0.00,VWS V14.01,2013-11-25 00:01:00,
2013-11-24 18:06:00,29.3,15.1,30.44,ESE,109,1.0,3.0,55,0.00,,---,0.00,VWS V14.01,2013-11-25 00:06:00,
2013-11-24 18:11:00,29.3,15.1,30.44,ENE,74,0.0,4.0,55,0.00,,---,0.00,VWS V14.01,2013-11-25 00:11:00,
2013-11-24 18:16:00,29.3,15.1,30.44,ENE,67,0.0,4.0,55,0.00,,---,0.00,VWS V14.01,2013-11-25 00:16:00,
2013-11-24 18:21:00,29.2,15.1,30.44,ENE,67,2.0,4.0,55,0.00,,---,0.00,VWS V14.01,2013-11-25 00:21:00,
2013-11-24 18:26:00,29.1,15.4,30.44,ENE,74,1.0,4.0,56,0.00,,---,0.00,VWS V14.01,2013-11-25 00:26:00,
2013-11-24 18:31:00,29.0,15.3,30.44,ENE,61,0.0,4.0,56,0.00,,---,0.00,VWS V14.01,2013-11-25 00:31:00,
2013-11-24 18:36:00,28.9,15.2,30.44,ENE,61,0.0,3.0,56,0.00,,---,0.00,VWS V14.01,2013-11-25 00:36:00,
2013-11-24 18:41:00,28.8,15.1,30.44,NE,56,0.0,5.0,56,0.00,,---,0.00,VWS V14.01,2013-11-25 00:41:00,
2013-11-24 18:46:00,28.8,15.1,30.44,ENE,57,0.0,5.0,56,0.00,,---,0.00,VWS V14.01,2013-11-25 00:46:00,
2013-11-24 18:51:00,28.8,15.1,30.44,ENE,62,0.0,5.0,56,0.00,,---,0.00,VWS V14.01,2013-11-25 00:51:00,
2013-11-24 18:56:00,28.8,15.1,30.44,ENE,63,1.0,5.0,56,0.00,,---,0.00,VWS V14.01,2013-11-25 00:56:00,
2013-11-24 19:01:00,28.8,15.1,30.44,ENE,65,0.0,5.0,56,0.00,,---,0.00,VWS V14.01,2013-11-25 01:01:00,
2013-11-24 19:06:00,28.7,15.0,30.43,NE,46,1.0,5.0,56,0.00,,---,0.00,VWS V14.01,2013-11-25 01:06:00,
2013-11-24 19:11:00,28.7,15.0,30.43,ENE,57,0.0,5.0,56,0.00,,---,0.00,VWS V14.01,2013-11-25 01:11:00,
2013-11-24 19:16:00,28.6,14.9,30.43,ENE,61,0.0,5.0,56,0.00,,---,0.00,VWS V14.01,2013-11-25 01:16:00,
2013-11-24 19:21:00,28.5,15.2,30.43,East,86,0.0,5.0,57,0.00,,---,0.00,VWS V14.01,2013-11-25 01:21:00,
2013-11-24 19:26:00,28.5,15.2,30.43,ENE,77,0.0,5.0,57,0.00,,---,0.00,VWS V14.01,2013-11-25 01:26:00,
2013-11-24 19:31:00,28.4,15.5,30.43,ENE,78,0.0,5.0,58,0.00,,---,0.00,VWS V14.01,2013-11-25 01:31:00,
2013-11-24 19:36:00,28.3,15.4,30.43,NE,39,0.0,3.0,58,0.00,,---,0.00,VWS V14.01,2013-11-25 01:36:00,
2013-11-24 19:41:00,28.3,15.4,30.43,NE,44,0.0,3.0,58,0.00,,---,0.00,VWS V14.01,2013-11-25 01:41:00,
2013-11-24 19:46:00,28.3,15.8,30.43,NE,44,0.0,3.0,59,0.00,,---,0.00,VWS V14.01,2013-11-25 01:46:00,
2013-11-24 19:51:00,28.2,15.7,30.42,NE,44,0.0,3.0,59,0.00,,---,0.00,VWS V14.01,2013-11-25 01:51:00,
2013-11-24 19:56:00,28.1,15.6,30.42,NE,44,0.0,3.0,59,0.00,,---,0.00,VWS V14.01,2013-11-25 01:56:00,
2013-11-24 20:01:00,28.0,15.9,30.42,NE,44,0.0,3.0,60,0.00,,---,0.00,VWS V14.01,2013-11-25 02:01:00,
2013-11-24 20:06:00,27.9,16.2,30.42,NE,44,0.0,0.0,61,0.00,,---,0.00,VWS V14.01,2013-11-25 02:06:00,
2013-11-24 20:11:00,27.8,16.1,30.42,NE,44,0.0,1.0,61,0.00,,---,0.00,VWS V14.01,2013-11-25 02:11:00,
2013-11-24 20:16:00,27.8,16.1,30.42,ENE,75,2.0,3.0,61,0.00,,---,0.00,VWS V14.01,2013-11-25 02:16:00,
2013-11-24 20:21:00,27.9,16.6,30.42,East,83,0.0,3.0,62,0.00,,---,0.00,VWS V14.01,2013-11-25 02:21:00,
2013-11-24 20:26:00,27.8,16.5,30.42,East,83,0.0,3.0,62,0.00,,---,0.00,VWS V14.01,2013-11-25 02:26:00,
2013-11-24 20:31:00,27.9,16.6,30.42,ENE,77,0.0,3.0,62,0.00,,---,0.00,VWS V14.01,2013-11-25 02:31:00,
2013-11-24 20:36:00,27.9,16.6,30.42,ENE,77,0.0,2.0,62,0.00,,---,0.00,VWS V14.01,2013-11-25 02:36:00,
2013-11-24 20:41:00,27.9,16.6,30.42,ENE,77,0.0,2.0,62,0.00,,---,0.00,VWS V14.01,2013-11-25 02:41:00,
2013-11-24 20:46:00,28.0,16.7,30.42,ENE,77,0.0,2.0,62,0.00,,---,0.00,VWS V14.01,2013-11-25 02:46:00,
2013-11-24 20:51:00,28.0,16.7,30.42,ENE,78,1.0,2.0,62,0.00,,---,0.00,VWS V14.01,2013-11-25 02:51:00,
2013-11-24 20:56:00,28.0,16.7,30.42,ENE,78,0.0,2.0,62,0.00,,---,0.00,VWS V14.01,2013-11-25 02:56:00,
2013-11-24 21:01:00,28.1,16.8,30.42,East,82,1.0,3.0,62,0.00,,---,0.00,VWS V14.01,2013-11-25 03:01:00,
2013-11-24 21:06:00,28.1,16.8,30.42,ENE,72,2.0,2.0,62,0.00,,---,0.00,VWS V14.01,2013-11-25 03:06:00,
2013-11-24 21:11:00,28.2,16.5,30.42,East,90,0.0,4.0,61,0.00,,---,0.00,VWS V14.01,2013-11-25 03:11:00,
2013-11-24 21:16:00,28.2,16.9,30.42,East,90,0.0,4.0,62,0.00,,---,0.00,VWS V14.01,2013-11-25 03:16:00,
2013-11-24 21:21:00,28.2,16.5,30.42,ENE,73,0.0,4.0,61,0.00,,---,0.00,VWS V14.01,2013-11-25 03:21:00,
2013-11-24 21:26:00,28.3,16.6,30.42,ENE,73,0.0,4.0,61,0.00,,---,0.00,VWS V14.01,2013-11-25 03:26:00,
2013-11-24 21:31:00,28.3,17.0,30.42,ENE,68,0.0,4.0,62,0.00,,---,0.00,VWS V14.01,2013-11-25 03:31:00,
2013-11-24 21:36:00,28.3,16.6,30.42,ENE,68,0.0,2.0,61,0.00,,---,0.00,VWS V14.01,2013-11-25 03:36:00,
2013-11-24 21:41:00,28.3,17.0,30.42,ENE,69,0.0,2.0,62,0.00,,---,0.00,VWS V14.01,2013-11-25 03:41:00,
2013-11-24 21:46:00,28.3,17.0,30.42,ENE,67,0.0,3.0,62,0.00,,---,0.00,VWS V14.01,2013-11-25 03:46:00,
2013-11-24 21:51:00,28.3,17.0,30.41,ENE,68,0.0,3.0,62,0.00,,---,0.00,VWS V14.01,2013-11-25 03:51:00,
2013-11-24 21:56:00,28.4,17.1,30.41,East,89,0.0,6.0,62,0.00,,---,0.00,VWS V14.01,2013-11-25 03:56:00,
2013-11-24 22:01:00,28.5,17.1,30.41,ENE,74,0.0,6.0,62,0.00,,---,0.00,VWS V14.01,2013-11-25 04:01:00,
2013-11-24 22:06:00,28.5,16.8,30.41,ENE,71,3.0,3.0,61,0.00,,---,0.00,VWS V14.01,2013-11-25 04:06:00,
2013-11-24 22:11:00,28.5,16.8,30.41,ENE,57,0.0,3.0,61,0.00,,---,0.00,VWS V14.01,2013-11-25 04:11:00,
2013-11-24 22:16:00,28.5,16.8,30.41,ENE,67,0.0,4.0,61,0.00,,---,0.00,VWS V14.01,2013-11-25 04:16:00,
2013-11-24 22:21:00,28.5,16.8,30.41,ENE,73,0.0,4.0,61,0.00,,---,0.00,VWS V14.01,2013-11-25 04:21:00,
2013-11-24 22:26:00,28.6,16.5,30.41,East,83,1.0,4.0,60,0.00,,---,0.00,VWS V14.01,2013-11-25 04:26:00,
2013-11-24 22:31:00,28.6,16.9,30.41,East,84,0.0,4.0,61,0.00,,---,0.00,VWS V14.01,2013-11-25 04:31:00,
2013-11-24 22:36:00,28.5,16.8,30.40,ESE,106,3.0,6.0,61,0.00,,---,0.00,VWS V14.01,2013-11-25 04:36:00,
2013-11-24 22:41:00,28.6,16.9,30.40,ENE,76,3.0,6.0,61,0.00,,---,0.00,VWS V14.01,2013-11-25 04:41:00,
2013-11-24 22:46:00,28.5,17.1,30.40,East,85,2.0,6.0,62,0.00,,---,0.00,VWS V14.01,2013-11-25 04:46:00,
2013-11-24 22:51:00,28.5,17.5,30.38,ENE,77,0.0,6.0,63,0.00,,---,0.00,VWS V14.01,2013-11-25 04:51:00,
2013-11-24 22:56:00,28.5,17.5,30.38,East,93,0.0,6.0,63,0.00,,---,0.00,VWS V14.01,2013-11-25 04:56:00,
2013-11-24 23:01:00,28.5,17.1,30.38,East,87,0.0,6.0,62,0.00,,---,0.00,VWS V14.01,2013-11-25 05:01:00,
2013-11-24 23:02:00,28.5,17.1,30.38,East,88,0.0,6.0,62,0.00,,---,0.00,VWS V14.01,2013-11-25 05:02:00,
2013-11-24 23:07:00,28.5,17.1,30.38,ENE,74,0.0,2.0,62,0.00,,---,0.00,VWS V14.01,2013-11-25 05:07:00,
2013-11-24 23:12:00,28.5,17.1,30.38,East,94,0.0,4.0,62,0.00,,---,0.00,VWS V14.01,2013-11-25 05:12:00,
2013-11-24 23:17:00,28.6,17.2,30.37,ESE,104,0.0,4.0,62,0.00,,---,0.00,VWS V14.01,2013-11-25 05:17:00,
2013-11-24 23:22:00,28.6,17.2,30.37,East,81,1.0,4.0,62,0.00,,---,0.00,VWS V14.01,2013-11-25 05:22:00,
2013-11-24 23:27:00,28.7,17.3,30.37,ENE,78,1.0,4.0,62,0.00,,---,0.00,VWS V14.01,2013-11-25 05:27:00,
2013-11-24 23:32:00,28.7,17.0,30.37,ENE,67,0.0,4.0,61,0.00,,---,0.00,VWS V14.01,2013-11-25 05:32:00,
2013-11-24 23:37:00,28.7,17.0,30.37,East,94,2.0,5.0,61,0.00,,---,0.00,VWS V14.01,2013-11-25 05:37:00,
2013-11-24 23:42:00,28.8,17.1,30.37,East,88,0.0,5.0,61,0.00,,---,0.00,VWS V14.01,2013-11-25 05:42:00,
2013-11-24 23:47:00,28.8,17.1,30.36,East,85,0.0,5.0,61,0.00,,---,0.00,VWS V14.01,2013-11-25 05:47:00,
2013-11-24 23:52:00,28.8,17.1,30.36,East,86,0.0,5.0,61,0.00,,---,0.00,VWS V14.01,2013-11-25 05:52:00,
2013-11-24 23:57:00,28.9,17.5,30.36,East,79,0.0,5.0,62,0.00,,---,0.00,VWS V14.01,2013-11-25 05:57:00,